EW7893 Weather Reports


time (UTC)temp
C
wind
direction
speed
KPH
gust
KPH
rain 1hr
cm
rain 24hr
cm
rain mn
cm
humidity
%
barometer
mb
20260504194537 22 187 6.4 20.9 0.00 0.00 0.00 33 1009.8
20260504193118 22 209 4.8 20.9 0.00 0.00 0.00 32 1009.9
20260504191504 22 192 6.4 17.7 0.00 0.00 0.00 32 1010.1
20260504190006 22 290 4.8 20.9 0.00 0.00 0.00 32 1010.4
20260504184530 22 210 3.2 19.3 0.00 0.00 0.00 32 1010.6
20260504183036 22 214 6.4 12.9 0.00 0.00 0.00 33 1010.8
20260504181548 22 186 8.0 17.7 0.00 0.00 0.00 32 1011.1
20260504180319 21 175 9.7 19.3 0.00 0.00 0.00 33 1011.2
20260504180052 21 185 8.0 19.3 0.00 0.00 0.00 33 1011.3
20260504174504 21 203 4.8 17.7 0.00 0.00 0.00 32 1011.4
20260504173002 21 210 11.3 24.1 0.00 0.00 0.00 34 1011.6
20260504171508 21 105 9.7 20.9 0.00 0.00 0.00 34 1011.6
20260504160317 20 243 8.0 25.7 0.00 0.00 0.00 35 1012.8
20260504160111 20 181 12.9 25.7 0.00 0.00 0.00 35 1012.8
20260504140308 17 224 9.7 19.3 0.00 0.00 0.00 44 1013.6
20260504120306 12 181 4.8 16.1 0.00 0.00 0.00 63 1014.7
20260504120120 12 182 3.2 16.1 0.00 0.00 0.00 63 1014.7
20260504100310 8 172 1.6 11.3 0.00 0.00 0.00 62 1014.6
20260504081540 8 179 3.2 8.0 0.00 0.00 0.00 58 1014.2
20260504080304 8 215 0.0 1.6 0.00 0.00 0.00 59 1014.1
20260504050002 9 191 0.0 3.2 0.00 0.00 0.00 55 1013.5
20260504044516 9 244 0.0 4.8 0.00 0.00 0.00 54 1013.4
20260504043029 9 189 0.0 3.2 0.00 0.00 0.00 54 1013.4
20260504041525 9 202 0.0 3.2 0.00 0.00 0.00 54 1013.3
20260504040310 10 209 0.0 1.6 0.00 0.00 0.00 54 1013.2
20260504040024 10 179 0.0 1.6 0.00 0.00 0.00 53 1013.2
20260504034535 10 214 0.0 6.4 0.00 0.00 0.00 53 1013.1
20260504033052 10 139 0.0 3.2 0.00 0.00 0.00 52 1013.1
20260504031509 10 215 0.0 3.2 0.00 0.00 0.00 49 1012.9
20260504030019 10 181 0.0 8.0 0.00 0.00 0.00 47 1012.9
20260504024554 10 140 0.0 3.2 0.00 0.00 0.00 47 1013.0
20260504023051 11 141 0.0 3.2 0.00 0.00 0.00 47 1012.9
20260504021600 11 184 0.0 1.6 0.00 0.00 0.00 45 1012.9
20260504020300 11 195 0.0 4.8 0.00 0.00 0.00 43 1013.0
20260504014520 11 212 0.0 1.6 0.00 0.00 0.00 42 1012.9
20260504013041 11 169 0.0 3.2 0.00 0.00 0.00 41 1012.7
20260504011546 11 191 0.0 1.6 0.00 0.00 0.00 40 1012.5
20260504010100 12 214 0.0 3.2 0.00 0.00 0.00 39 1012.4
20260504004534 12 229 0.0 1.6 0.00 0.00 0.00 38 1012.1
20260504003029 12 153 0.0 1.6 0.00 0.00 0.00 37 1011.9
20260504001557 13 211 0.0 3.2 0.00 0.00 0.00 35 1011.7
20260504000316 14 234 0.0 3.2 0.00 0.00 0.00 33 1011.4
20260504000001 13 246 0.0 4.8 0.00 0.00 0.00 33 1011.5
20260503234503 14 258 0.0 6.4 0.00 0.00 0.00 32 1011.4
20260503233002 15 146 0.0 9.7 0.00 0.00 0.00 31 1011.1
20260503231513 16 224 0.0 6.4 0.00 0.00 0.00 28 1011.1
20260503230031 16 252 1.6 16.1 0.00 0.00 0.00 28 1010.9
20260503224553 16 336 4.8 14.5 0.00 0.00 0.00 27 1010.9
20260503223002 16 347 3.2 16.1 0.00 0.00 0.00 26 1010.8
20260503221520 16 25 3.2 19.3 0.00 0.00 0.00 27 1010.7
20260503220304 16 345 11.3 20.9 0.00 0.00 0.00 26 1010.8
20260503220021 16 324 6.4 20.9 0.00 0.00 0.00 26 1010.8
20260503214541 16 284 4.8 17.7 0.00 0.00 0.00 27 1010.8
20260503213001 16 238 6.4 20.9 0.00 0.00 0.00 26 1010.7
20260503211508 16 331 6.4 25.7 0.00 0.00 0.00 26 1010.8
20260503210025 15 319 4.8 25.7 0.00 0.00 0.00 28 1010.8
20260503204555 16 246 6.4 19.3 0.00 0.00 0.00 27 1010.6
20260503203003 15 248 4.8 32.2 0.00 0.00 0.00 28 1010.8
20260503201525 15 317 8.0 19.3 0.00 0.00 0.00 29 1010.8
20260503200318 15 292 8.0 20.9 0.00 0.00 0.00 27 1011.0
20260503200033 15 284 4.8 20.9 0.00 0.00 0.00 29 1011.1